ECHOSTAR 11

Last updated on Sun Sep 20 2026 00:02:56 GMT+0000 (Coordinated Universal Time)

1 33207U 08035A 26262.25772352 -.00000062 00000+0 00000+0 0 9999 2 33207 1.2413 82.9172 0002427 86.6552 171.5963 1.00272447 52156
UTC large
Height (km)
Speed (km/s)
/
Latitude / Longitude
Inclination (degrees)
Orbital Period (minutes)
Azimuth
Elevation
Range (km)
Doppler Factor

Next 0 passes for location: London (51.5072 / 0.1276)

No passes found over London.
ECHOSTAR 11